Flag for Norway Weather past 2 weeks in Farsund, Norway

Now
62 °F

Cool.


Feels Like: 62 °F
Forecast: 49 / 60 °F
Wind: 6 mph from Southwest

Location: Lista Fyr

Current Time: Aug 22, 2014 at 5:51:29 PM

Latest Report: Aug 22, 2014 at 5:00 PM


Visibility: N/A

Pressure: 29.60 "Hg

Humidity: 67%

Dew point: 51 °F

Location of FarsundLocation

Historic Weather in Farsund — Graph

°F

Farsund temperature yesterday

Maximum temperature yesterday: 59 °F (at 3:00 PM)
Minimum temperature yesterday: 53 °F (at 6:00 AM)
Average temperature yesterday: 55 °F

Past Weeks' High & Low Weather Summary

 TemperatureHumidityPressure
High69 °F (Aug 10, 6:00 PM)94% (Aug 22, 3:00 AM)29.93 "Hg (Aug 22, 3:00 AM)
Low46 °F (Aug 18, 6:00 AM)57% (Aug 17, 1:00 PM)29.21 "Hg (Aug 18, 2:00 PM)
Average59 °F78%29.56 "Hg
* Reported Aug 7 4:00 PM — Aug 22 4:00 PM, Farsund, Weather by CustomWeather, © 2014

Note: Actual official high and low records may vary slightly from our data, if they occured in-between our weather recording intervals... More about our weather records

Advertising

Farsund weather history for previous 24 hours

 ConditionsComfort  
Time TempWeatherWind HumidityBarometerVisibility
4:00 PM
Aug 22
63 °FMild.6 mph65%29.60 "HgN/A
3:00 PM62 °FCool.6 mph69%29.60 "HgN/A
2:00 PM59 °FSprinkles. Overcast.3 mph75%29.60 "Hg12 mi
1:00 PM58 °FCool.5 mph81%29.61 "HgN/A
12:00 PM56 °FCool.3 mph82%29.60 "HgN/A
11:00 AM53 °FRain showers. Overcast.6 mph92%29.60 "Hg9 mi
10:00 AM51 °FCool.6 mph93%29.60 "HgN/A
9:00 AM52 °FCool.5 mph93%29.60 "HgN/A
8:00 AM51 °FRain showers. Overcast.5 mph93%29.61 "Hg6 mi
7:00 AM50 °FCool.3 mph94%29.62 "HgN/A
6:00 AM50 °FCool.5 mph94%29.63 "HgN/A
5:00 AM50 °FCool.3 mph94%29.65 "HgN/A
4:00 AM51 °FCool.3 mph94%29.66 "HgN/A
3:00 AM50 °FCool.5 mph94%29.67 "HgN/A
2:00 AM50 °FCool.2 mph93%29.68 "HgN/A
1:00 AM51 °FCool.2 mph92%29.70 "HgN/A
12:00 AM52 °FCool.2 mph89%29.70 "HgN/A
11:00 PM
Aug 21
54 °FCool.5 mph77%29.70 "HgN/A
10:00 PM54 °FCool.2 mph81%29.71 "HgN/A
9:00 PM54 °FCool.1 mph79%29.71 "HgN/A
8:00 PM55 °FSprinkles. Overcast.3 mph70%29.72 "Hg16 mi
7:00 PM57 °FCool.5 mph71%29.72 "HgN/A
6:00 PM57 °FCool.3 mph68%29.73 "HgN/A
5:00 PM58 °FCool.5 mph63%29.74 "HgN/A
Weather by CustomWeather, © 2014

See weather overviewHow to use our weather pages